Погода в Ключи

Погода в Ключи : погода сейчас, прогноз погоды и архив. Всё, что Вы хотите узнать о погоде в Ключи!

Хотите узнать прогноз погоды в Ключи? Тогда Вам сюда: Погода в Ключи

Поиск расширенной информации на нашем сайте:

Другие новости

Новости СМИ2

Главная страница сайта

Новости сайта

02.10.2013

Напоминаем, что на нашем новом сайте вы можете получить высокодетализированные прогнозы погоды по пунктам России, СНГ и мира (включающие важные для авиации метеовеличины, такие как направление и скорость ветра, видимость, явления погоды, количество и форма облачности, нижняя и верхняя граница облачности), а также ознакомиться с разнообразными материалами по авиационной метеорологии и подборкой полезных ссылок на эту тему.

Сайт Метеоцентр.Азия посвящён разработке технологий оптимизации авиаметеорологического обслуживания, включая проектирование и перспективное создание нескольких автоматизированных авиаметеорологических систем:
- система выпуска высокодетальных прогностических карт явлений погоды для нижнего воздушного пространства по России и ближнему зарубежью;
- система верификации прогнозов TAF (выпускаемых синоптиками официальных АМСГ РФ и ближнего зарубежья) и AUTOTAF (выпускаемых сайтом Метеоцентр.Азия) - выявление ошибок, онлайн-сопоставление с фактической погодой METAR, автоматическое внесение коррективов в прогнозы при резком отклонении фактической погоды от прогноза, подсчёт оправдываемости прогнозов по элементам и в целом;
- система обработки, анализа и отображения авиаметеорологической информации для применения провайдерами метеорологической информации.


Погода в Ключи - сегодня

Время (UTC), дата Ветер
(°,м/с) 
Видим.   Явления Облачность Т
(°С)
Тd
(°С)
f(%) Тe
(°С)
Pmin
(гПа)
dP
(гПа)
Po
(мм)
O2
(г/м3)
Тmin Tmax R s Состояние
почвы
03 25.02.17 310 (СЗ) 9-14{14}  1000 м  снег  10/10 200 м 
[Frnb|Ns]
-9 -13.8 68 -16  988.6  -0.7  739  309           
06 25.02.17 300 (СЗ) 12-20{21}  20000 м  позёмок{снег}  10/4 1000 м средняя 
[Sc|Ac As]
-9.4 -17.3 53 -17  991.7  3.1  741  311           
09 25.02.17 280 (З) 11-16{21}  20000 м  позёмок  9/6 1000 м средняя 
[Sc|Ac trans]
-9.7 -19.4 45 -17  997.3  5.6  745  313    -7.7     
12 25.02.17 290 (З) 12-17{21}  20000 м  позёмок  10/4 1000 м средняя 
[Sc|Ac As]
-9.7 -19.3 45 -18  1000.9  3.6  748  314           
15 25.02.17 290 (З) 9-14{21}  20000 м  позёмок  9/3 1000 м средняя 
[Sc|Ac trans]
-10 -20.7 41 -17  1004.8  3.9  751  316           
18 25.02.17 310 (СЗ) 7-11{15}  20000 м  позёмок  8/1 1000 м средняя 
[Sc|Ac trans]
-10.3 -20 45 -16  1007.6  2.8  753  317           
21 25.02.17 300 (СЗ) 8-11{16}  20000 м  позёмок  4/0 средняя, верхняя 
[Ac trans|Ci fib]
-11.2 -20.7 45 -18  1011.3  3.7  756  319  -11.2      100  неравномерный
мокрый или
старый снег
100% 
00 26.02.17 220 (ЮЗ) 4{11}  20000 м  позёмок  3/0 верхняя 
[Ci fib]
-10.9 -19.9 47 -15  1014.5  3.1  758  320  -12.8         
03 26.02.17 300 (СЗ) 20000 м    3/0 средняя, верхняя 
[Ac trans|Ci fib]
-6.8 -19.6 35 -8  1015.6  1.2  759  315           
06 26.02.17 130 (ЮВ) 20000 м    9/0 средняя, верхняя 
[Ac lent|Ci fib]
-6.3 -19.4 35 -6  1017.8  2.2  761  315           
09 26.02.17 130 (ЮВ) 20000 м    8/0 средняя 
[Ac trans]
-14.7 -21.2 58 -17  1020.7  2.7  763  326    -5       
12 26.02.17 280 (З) 20000 м    8/0 средняя 
[Ac trans]
-17 -22.1 65 -19  1023.8  765  330           
15 26.02.17 140 (ЮВ) 20000 м    8/0 средняя 
[Ac trans]
-16.5 -22.1 62 -20  1025.1  1.3  766  330           
18 26.02.17 120 (ЮВ) 20000 м    8/0 средняя 
[Ac trans]
-19.4 -22.3 78 -20  1026.3  1.1  767  334           
21 26.02.17 290 (З) 20000 м    6/1 1000 м средняя, верхняя 
[Sc|Ac trans|Ci fib]
-22 -25.1 76 -22  1027  0.7  767  338  -22      100  неравномерный
мокрый или
старый снег
100% 
00 27.02.17 300 (СЗ) 20000 м    9/4 1000 м средняя, верхняя 
[Sc|Ac trans|Ci fib]
-16.9 -21.7 66 -21  1027.2  0.2  767  331  -22.3         
03 27.02.17 090 (В) 20000 м  позёмок  9/5 1000 м средняя, верхняя 
[Sc|Ac trans|Ci fib]
-6.8 -14 56 -10  1025.4  -1.7  766  318           
06 27.02.17 070 (В) 20000 м  позёмок  10/4 1000 м средняя 
[Sc|Ac As]
-2.5 -8.3 64 -6  1024.2  -1.1  765  312           
09 27.02.17 100 (В) 7-10{12}  20000 м  позёмок  10/5 1000 м средняя 
[Sc|Ac As]
-2.2 -6 75 -7  1023.5  -0.7  765  311    -2.2       
12 27.02.17 090 (В) 5{12}  4000 м  слаб. ливневой снег  10/10 330 м кучево-дожд. 
[Cb cap]
-1.6 -2.3 95 -5  1021.4  -2.1  763  310           
15 27.02.17 100 (В) 8-13{13}  2000 м  снег{ливн. осадки}  10/10 200 м 
[Frnb|Ns]
-1.3 -2 95 -6  1019.1  -2.2  762  309           
18 27.02.17 090 (В) 5{13}  2000 м  снег{ливн. осадки}  10/10 200 м 
[Frnb|Ns]
-0.5 -1.1 96 -4  1018.5  -0.6  761  307           
21 27.02.17 100 (В) 8-12{12}  0500 м  сильн. снег  10/10 200 м 
[Frnb|Ns]
-0.5 -1.1 96 -5  1017.1  -1.4  760  307  -2.3    101  неравномерный
сухой снег
100% 
00 28.02.17 100 (В) 7-11{15}  4000 м  слаб. снег  10/10 300 м 
[Frnb|Ns]
-0.5 -1.3 94 -4  1015.4  -1.7  759  306           
03 28.02.17 100 (В) 6-11{13}  2000 м  снег  10/10 200 м 
[Frnb|Ns]
-0.5 -1.2 95 -4  1011.5  -3.9  756  305           
Время (UTC), дата Ветер
(°,м/с) 
Видим.   Явления Облачность Т
(°С)
Тd
(°С)
f(%) Тe
(°С)
Pmin
(гПа)
dP
(гПа)
Po
(мм)
O2
(г/м3)
Тmin Tmax R s Состояние
почвы

Для получения пояснительной информации подведите курсор к названию столбца.

ПОГОДА в Ключи - архив

Всё, что Вы хотите узнать о погоде в Ключи - удобно и подробно!

Выберите нужную дату (начиная с 1 января 2015* года) и нажмите кнопку "Найти".
Будут отображены архивные сводки погоды по пункту Ключи, начиная с указанной даты.


Отображать данные в формате CSV (для использования в таблицах Excel)


Внимание! Наш архив погоды предназначен исключительно для личного некоммерческого использования в познавательных целях. Если Вам необходимы официальные справки о состоянии погоды (для производственных, юридических, коммерческих и т.п. целей), обращайтесь в органы Росгидромета.

*Примечание: данная дата относится к архиву по метеостанциям СССР (Россия, СНГ, Балтия).
Архив по метеостанциям Зарубежной Европы и Азии (кроме Китая) хранится 10 дней, по другим регионам земного шара (Китай, Африка, Америка, Австралия, Океания) - 1 день.

Ключи - район местоположения метеостанции


Название, широта, долгота, высота метеостанции:
Ключи 56.3°ш. 160.8°д. 29 м над ур. моря [Российская Федерация]

Дополнительная информация

В oтличие oт бoльшинства пoгoдных сайтoв мы публикуем пoдрoбную метеoинфoрмацию в детальнoм прoфессиoнальнoм фoрмате.

Характеристики температуры и влажнoсти вoздуха измеряются на высoте 2 м в тени вдали oт зданий и деревьев.
Скoрoсть ветра измеряется на высoте 10 м (на урoвне рoста челoвека скoрoсть ветра ниже в 1.5-2 раза). Если метеoстанция нахoдится в гoрoде или в лесу, тo скoрoсть ветра занижена на 2-4 м/с пo сравнению с oткрытым местoм. Скoрoсть ветра над акватoриями крупных рек и oзёр, а также на вершинах хoлмoв на 2-5 м/с выше, чем в oбычных услoвиях.
Атмoсфернoе давление в разных тoчках местнoсти мoжет значительнo oтличаться oт давления на метеoстанции, в зависимoсти oт услoвий рельефа (при пoдъёме на 10 м давление пoнижается примернo на 1 мм рт.ст.).